Spokane Fairchild, WA
on Tuesday, November 13, 2012

Tuesday
Previous Day Next Day
Daily Summary
 ActualAverage (KGEG)Record (KGEG)
Temperature
Mean Temperature °F 37°F  
Max Temperature 37°F 43°F 60°F (1999)
Min Temperature 32°F 31°F -2°F (1959)
Degree Days
Heating Degree Days 30 28  
Month to date heating degree days 339  
Since 1 July heating degree days 1127  
Cooling Degree Days 0 0  
Month to date cooling degree days 0  
Year to date cooling degree days 450  
Moisture
Dew Point 34°F   
Average Humidity 100    
Maximum Humidity 100    
Minimum Humidity 99    
Precipitation
Precipitation 0.00 in 0.08 in 0.73 in (1897)
Month to date precipitation 0.92  
Year to date precipitation 12.88  
Snow
Snow 0.00 in 0.30 in 6.90 in (1911)
Month to date snowfall 1.7  
Since 1 July snowfall 1.8  
Since 1 September snowfall 1.8  
Snow Depth 1.00 in   
Wind
Wind Speed 4 mph   
Max Wind Speed 8 mph   
Max Gust Speed mph   
Visibility 7 miles   
Events Fog   

Key: T is trace of precipitation, MM is missing value
Source: NWS Daily Summary
Time(PST)TemperatureDew PointHumidity Pressure Visibility Wind DirectionWind SpeedGust SpeedPrecipitationEvents Conditions
12:21 AM 33.8°F 33.8°F 100% 30.23 in 0.5 miles SW 1.2 mph - N/A Fog Fog
12:58 AM 33.8°F 33.8°F 100% 30.30 in 0.5 miles SSE 3.5 mph - 0.00 in Fog Fog
1:28 AM 33.8°F 33.8°F 100% 30.23 in 0.5 miles SSE 2.3 mph - N/A Fog Fog
1:43 AM 33.8°F 33.8°F 100% 30.23 in 0.5 miles Calm Calm - N/A Fog Fog
1:58 AM 33.8°F 33.8°F 100% 30.30 in 0.5 miles East 2.3 mph - N/A Fog Fog
2:01 AM 32.0°F 32.0°F 100% 30.23 in 0.5 miles East 2.3 mph - N/A Fog Fog
2:11 AM 32.0°F 32.0°F 100% 30.23 in 0.5 miles SE 2.3 mph - N/A Fog Fog
2:58 AM 33.1°F 33.1°F 100% 30.30 in 0.2 miles SSE 3.5 mph - 0.00 in Fog Fog
3:03 AM 32.0°F 32.0°F 100% 30.23 in 0.2 miles SE 2.3 mph - N/A Fog Fog
3:08 AM 32.0°F 32.0°F 100% 30.23 in 0.2 miles SSE 3.5 mph - N/A Fog Fog
3:33 AM 32.0°F 32.0°F 100% 30.22 in 0.5 miles SE 3.5 mph - N/A Fog Fog
3:35 AM 32.0°F 32.0°F 100% 30.22 in 0.5 miles SE 3.5 mph - N/A Fog Fog
3:40 AM 32.0°F 32.0°F 100% 30.22 in 0.5 miles SE 3.5 mph - N/A Fog Fog
3:58 AM 33.3°F 33.3°F 100% 30.30 in 0.5 miles ESE 5.8 mph - 0.00 in Fog Light Drizzle
4:13 AM 32.0°F 32.0°F 100% 30.22 in 0.5 miles ESE 5.8 mph - N/A Fog Light Drizzle
4:14 AM 32.0°F 32.0°F 100% 30.22 in 0.5 miles ESE 5.8 mph - N/A Fog Fog
4:29 AM 32.0°F 32.0°F 100% 30.21 in 0.8 miles ESE 5.8 mph - N/A   Mist
4:34 AM 33.8°F 33.8°F 100% 30.21 in 0.8 miles SE 5.8 mph - N/A   Mist
4:39 AM 33.8°F 33.8°F 100% 30.21 in 1.2 miles SE 5.8 mph - N/A   Overcast
4:44 AM 33.8°F 33.8°F 100% 30.21 in 2.0 miles SE 4.6 mph - N/A   Overcast
4:49 AM 33.8°F 33.8°F 100% 30.21 in 2.5 miles ESE 4.6 mph - N/A   Overcast
4:54 AM 33.8°F 33.8°F 100% 30.21 in 2.0 miles ESE 4.6 mph - N/A   Overcast
4:58 AM 34.0°F 34.0°F 100% 30.30 in 2.0 miles ESE 3.5 mph - 0.00 in   Overcast
5:03 AM 33.8°F 33.8°F 100% 30.22 in 3.0 miles SE 3.5 mph - N/A   Overcast
5:23 AM 33.8°F 33.8°F 100% 30.22 in 6.0 miles SSE 4.6 mph - N/A   Overcast
5:48 AM 33.8°F 33.8°F 100% 30.22 in 9.0 miles SSE 4.6 mph - N/A   Overcast
5:53 AM 33.8°F 33.8°F 100% 30.22 in 10.0 miles SSE 5.8 mph - N/A   Overcast
5:58 AM 34.0°F 34.0°F 100% 30.30 in 10.0 miles SE 5.8 mph - N/A   Overcast
7:04 AM 33.8°F 33.8°F 100% 30.29 in 6.0 miles SSE 5.8 mph - N/A   Light Drizzle
7:34 AM 33.8°F 33.8°F 100% 30.29 in 2.5 miles SSE 5.8 mph - N/A   Light Drizzle
7:55 AM 34.3°F 34.3°F 100% 30.29 in 1.8 miles SE 4.6 mph - 0.00 in   Light Drizzle
8:11 AM 33.8°F 33.8°F 100% 30.30 in 5.0 miles SSE 5.8 mph - N/A   Overcast
8:21 AM 33.8°F 33.8°F 100% 30.30 in 9.0 miles SSE 3.5 mph - N/A   Overcast
8:40 AM 33.8°F 33.8°F 100% 30.22 in 2.5 miles SE 3.5 mph - N/A   Overcast
8:55 AM 34.5°F 34.5°F 100% 30.29 in 5.0 miles SE 4.6 mph - N/A   Overcast
8:58 AM 34.5°F 34.5°F 100% 30.30 in 7.0 miles SE 4.6 mph - N/A   Overcast
9:01 AM 33.8°F 33.8°F 100% 30.22 in 10.0 miles SE 5.8 mph - N/A   Overcast
9:19 AM 35.6°F 35.6°F 100% 30.22 in 3.0 miles SSE 8.1 mph - N/A   Overcast
9:24 AM 35.6°F 35.6°F 100% 30.22 in 3.0 miles SSE 5.8 mph - N/A   Overcast
9:34 AM 35.6°F 35.6°F 100% 30.22 in 10.0 miles SE 5.8 mph - N/A   Overcast
9:54 AM 35.6°F 35.6°F 100% 30.22 in 10.0 miles SSE 6.9 mph - N/A   Overcast
9:58 AM 34.9°F 34.9°F 100% 30.30 in 10.0 miles SSE 8.1 mph - 0.00 in   Overcast
10:18 AM 35.6°F 35.6°F 100% 30.22 in 10.0 miles SSE 6.9 mph - N/A   Overcast
10:48 AM 35.6°F 35.6°F 100% 30.22 in 10.0 miles SSE 4.6 mph - N/A   Overcast
10:53 AM 35.6°F 35.6°F 100% 30.21 in 10.0 miles SSE 4.6 mph - N/A   Overcast
10:58 AM 35.1°F 35.1°F 100% 30.28 in 10.0 miles SSE 6.9 mph - N/A   Overcast
11:43 AM 35.6°F 35.6°F 100% 30.20 in 10.0 miles SSE 5.8 mph - N/A   Overcast
11:53 AM 35.6°F 35.6°F 100% 30.19 in 10.0 miles SSE 5.8 mph - N/A   Overcast
11:58 AM 35.6°F 35.6°F 100% 30.26 in 10.0 miles SSE 6.9 mph - N/A   Overcast
12:08 PM 35.6°F 35.6°F 100% 30.19 in 10.0 miles SSE 6.9 mph - N/A   Overcast
12:18 PM 35.6°F 35.6°F 100% 30.19 in 10.0 miles SSE 8.1 mph - N/A   Overcast
12:58 PM 36.0°F 35.8°F 99% 30.26 in 10.0 miles SSE 5.8 mph - N/A   Overcast
1:05 PM 35.6°F 35.6°F 100% 30.18 in 10.0 miles SSE 4.6 mph - N/A   Overcast
1:45 PM 35.6°F 35.6°F 100% 30.17 in 10.0 miles SSE 5.8 mph - N/A   Overcast
1:55 PM 35.6°F 35.6°F 100% 30.17 in 10.0 miles SSE 4.6 mph - N/A   Overcast
1:58 PM 36.1°F 36.1°F 100% 30.24 in 10.0 miles SSE 6.9 mph - N/A   Overcast
2:13 PM 35.6°F 35.6°F 100% 30.16 in 10.0 miles SSE 5.8 mph - N/A   Overcast
2:38 PM 35.6°F 35.6°F 100% 30.16 in 10.0 miles SSE 4.6 mph - N/A   Overcast
2:58 PM 36.5°F 36.5°F 100% 30.24 in 10.0 miles SE 4.6 mph - N/A   Overcast
3:13 PM 37.4°F 37.4°F 100% 30.17 in 10.0 miles SE 3.5 mph - N/A   Overcast
3:42 PM 35.6°F 35.6°F 100% 30.16 in 10.0 miles ESE 5.8 mph - N/A   Overcast
3:47 PM 35.6°F 35.6°F 100% 30.16 in 10.0 miles ESE 4.6 mph - N/A   Overcast
3:58 PM 36.0°F 36.0°F 100% 30.23 in 10.0 miles East 2.3 mph - 0.00 in   Overcast
4:03 PM 35.6°F 35.6°F 100% 30.16 in 10.0 miles East 2.3 mph - N/A   Overcast
4:09 PM 35.6°F 35.6°F 100% 30.16 in 10.0 miles East 3.5 mph - N/A   Overcast
4:46 PM 35.6°F 35.6°F 100% 30.15 in 10.0 miles ESE 4.6 mph - N/A   Overcast
4:56 PM 35.6°F 35.6°F 100% 30.16 in 10.0 miles ESE 5.8 mph - N/A   Overcast
4:58 PM 35.6°F 35.6°F 100% 30.23 in 10.0 miles ESE 4.6 mph - 0.00 in   Overcast
5:43 PM 35.6°F 35.6°F 100% 30.15 in 10.0 miles SE 4.6 mph - N/A   Overcast
5:58 PM 34.9°F 34.9°F 100% 30.22 in 10.0 miles ESE 3.5 mph - N/A   Overcast
6:58 PM 35.1°F 35.1°F 100% 30.15 in 10.0 miles ESE 4.6 mph - N/A   Overcast
7:58 PM 34.7°F 34.7°F 100% 30.15 in 10.0 miles East 3.5 mph - N/A   Overcast
8:20 PM 33.8°F 33.8°F 100% 30.15 in 10.0 miles East 3.5 mph - N/A   Overcast
8:30 PM 33.8°F 33.8°F 100% 30.14 in 10.0 miles East 3.5 mph - N/A   Mostly Cloudy
8:42 PM 33.8°F 33.8°F 100% 30.15 in 10.0 miles East 4.6 mph - N/A   Scattered Clouds
8:58 PM 33.8°F 33.8°F 100% 30.22 in 10.0 miles East 4.6 mph - 0.00 in   Scattered Clouds
9:00 PM 32.0°F 32.0°F 100% 30.15 in 10.0 miles East 4.6 mph - N/A   Scattered Clouds
9:10 PM 33.8°F 33.8°F 100% 30.14 in 10.0 miles East 4.6 mph - N/A   Mostly Cloudy
9:35 PM 33.8°F 33.8°F 100% 30.14 in 10.0 miles East 3.5 mph - N/A   Overcast
9:48 PM 33.8°F 33.8°F 100% 30.14 in 10.0 miles East 3.5 mph - N/A   Overcast
9:53 PM 33.8°F 33.8°F 100% 30.14 in 10.0 miles East 2.3 mph - N/A   Overcast
9:58 PM 34.2°F 34.2°F 100% 30.21 in 10.0 miles East 2.3 mph - 0.00 in   Overcast
10:58 PM 34.2°F 34.2°F 100% 30.21 in 10.0 miles ESE 4.6 mph - N/A   Overcast
11:10 PM 33.8°F 33.8°F 100% 30.14 in 10.0 miles ESE 2.3 mph - N/A   Light Drizzle
11:35 PM 33.8°F 33.8°F 100% 30.14 in 10.0 miles ESE 3.5 mph - N/A   Overcast
11:45 PM 33.8°F 33.8°F 100% 30.14 in 10.0 miles ESE 3.5 mph - N/A   Overcast
11:58 PM 34.3°F 34.3°F 100% 30.21 in 10.0 miles ESE 4.6 mph - 0.00 in   Overcast
Moon Phase
Nov. 13 Nov. 13 Nov. 20 Nov. 28 Dec. 06
Sunrise:06:53 AM (PST) Moon Rise:06:38 AM (PST)11/13
Sunset:04:15 PM (PST) Moon Set:04:10 PM (PST)11/13

Copyright © 2014 The Weather Underground, Inc.